GLOBALSTAR M069 1 31573U 07020C 26122.13397409 -.00000050 00000+0 39795-3 0 9998 2 31573 52.0058 22.4728 0002487 56.5579 91.6856 12.23470227873164 GLOBALSTAR M072 1 31574U 07020D 26122.02753983 -.00000063 00000+0 28348-3 0 9996 2 31574 51.9926 223.1359 0001434 198.8777 332.9572 11.91657471869475 GLOBALSTAR M066 1 32265U 07048C 26122.16884376 -.00000067 00000+0 23304-3 0 9991 2 32265 51.9573 190.0190 0004452 302.7519 81.3360 12.30387876854566 GLOBALSTAR M079 1 37188U 10054A 26122.07544713 -.00000098 00000+0 30186-4 0 9990 2 37188 52.0040 249.0410 0000474 144.2606 27.6439 12.62265201716729 GLOBALSTAR M074 1 37189U 10054B 26122.10173661 -.00000102 00000+0 11306-4 0 9994 2 37189 52.0016 248.2336 0000578 109.5124 61.7249 12.62267639717338 GLOBALSTAR M076 1 37190U 10054C 26122.12780838 -.00000098 00000+0 31980-4 0 9992 2 37190 52.0030 248.3520 0000348 105.2604 65.4500 12.62272441717050 GLOBALSTAR M077 1 37191U 10054D 26122.00596867 -.00000089 00000+0 -19817-3 0 9992 2 37191 51.9969 296.5113 0003311 91.6923 89.0718 11.67547364715748 GLOBALSTAR M075 1 37192U 10054E 26122.22054808 -.00000100 00000+0 23296-4 0 9991 2 37192 51.9952 290.1513 0000796 107.8749 63.6453 12.62266311716139 GLOBALSTAR M073 1 37193U 10054F 26122.18729219 -.00000076 00000+0 15625-3 0 9990 2 37193 52.0056 204.3172 0000238 170.8226 208.4952 12.62266579718126 GLOBALSTAR M083 1 37739U 11033A 26122.12492455 -.00000089 00000+0 79682-4 0 9995 2 37739 51.9834 152.7976 0000133 231.4989 165.8529 12.62262842687137 GLOBALSTAR M088 1 37740U 11033B 26122.20088646 -.00000116 00000+0 -66582-4 0 9996 2 37740 52.0226 58.8815 0000587 59.8760 80.7385 12.62263150682689 GLOBALSTAR M091 1 37741U 11033C 26122.13987977 -.00000092 00000+0 64859-4 0 9991 2 37741 52.0023 22.1005 0000624 86.3371 78.3741 12.62262915683469 GLOBALSTAR M085 1 37742U 11033D 26122.04753867 -.00000090 00000+0 79205-4 0 9990 2 37742 52.0142 333.6350 0000723 106.5554 58.5177 12.62262979683961 GLOBALSTAR M081 1 37743U 11033E 26122.07434784 -.00000080 00000+0 13289-3 0 9996 2 37743 51.9976 336.0429 0000698 86.9194 79.3541 12.62263874684110 GLOBALSTAR M089 1 37744U 11033F 26122.19405094 -.00000103 00000+0 20783-5 0 9997 2 37744 51.9936 289.8462 0000825 84.7946 86.1733 12.62266098684976 GLOBALSTAR M084 1 38040U 11080A 26122.01298588 -.00000075 00000+0 16120-3 0 9994 2 38040 51.9987 157.8535 0000256 43.4504 324.2504 12.62266823662937 GLOBALSTAR M080 1 38041U 11080B 26122.14962843 -.00000067 00000+0 20573-3 0 9999 2 38041 52.0041 159.1403 0000599 150.8611 247.8514 12.62268802663078 GLOBALSTAR M082 1 38042U 11080C 26122.17859191 -.00000104 00000+0 93493-6 0 9990 2 38042 52.0053 114.5456 0000261 142.8523 317.6425 12.62269505663780 GLOBALSTAR M092 1 38043U 11080D 26122.21500227 -.00000074 00000+0 16465-3 0 9996 2 38043 52.0076 204.8314 0000402 126.7185 258.6346 12.62266813662249 GLOBALSTAR M090 1 38044U 11080E 26122.12088791 -.00000113 00000+0 -53414-4 0 9995 2 38044 52.0104 108.6619 0000134 39.8152 37.4353 12.62268395663891 GLOBALSTAR M086 1 38045U 11080F 26121.97582477 -.00000098 00000+0 31736-4 0 9992 2 38045 51.9877 109.1089 0000950 322.8836 72.7016 12.62285689663820 GLOBALSTAR M097 1 39072U 13005A 26122.07717160 -.00000102 00000+0 93121-5 0 9996 2 39072 52.0073 23.6941 0000510 78.5254 281.5670 12.62260046611086 GLOBALSTAR M093 1 39073U 13005B 26122.13008520 -.00000087 00000+0 91332-4 0 9990 2 39073 52.0131 16.8649 0000390 82.1050 277.9861 12.62264756611041 GLOBALSTAR M094 1 39074U 13005C 26121.73420530 -.00000104 00000+0 -28166-5 0 9992 2 39074 51.9961 292.2354 0000620 121.0462 239.0466 12.62267959612601 GLOBALSTAR M096 1 39075U 13005D 26122.06427433 -.00000079 00000+0 13631-3 0 9998 2 39075 52.0091 339.9950 0000685 100.2952 259.7992 12.62264583611560 GLOBALSTAR M078 1 39076U 13005E 26122.11635872 -.00000127 00000+0 -12724-3 0 9990 2 39076 51.9879 63.9038 0000993 133.8287 226.2662 12.62265909610193 GLOBALSTAR M095 1 39077U 13005F 26122.14317343 -.00000116 00000+0 -67750-4 0 9992 2 39077 52.0091 61.3624 0000343 118.0294 242.0607 12.62267350610059 GLOBALSTAR M087 1 52888U 22064A 26122.15661986 -.00000071 00000+0 18501-3 0 9996 2 52888 51.9989 202.5916 0000464 169.0786 191.0091 12.62268522185326